Location: Betzi
(47.2343°N, 9.5260°E)
Time: 22:55:03
(UTC+00:00)

Cosmos 2315 Rocket - Pass Details

Date: 27 May 2022
Orbit: 966 x 1002 km, 82.9° (Epoch: 26 June)

Event Time Altitude Azimuth Distance (km) Brightness Sun altitude
Exits shadow 00:18:31 34° 178° (S) 1,584 4.6 -20.2°
Maximum altitude 00:21:30 80° 96° (E) 1,022 4.0 -20.1°
Drops below altitude 10° 00:27:55 10° 11° (N) 2,786 7.6 -19.8°
Sets 00:30:27 0° 10° (N) 3,740 8.6 -19.6°
